Content
SEND FEEDBACK

Daily
Averages
Monthly
Summary
United States of America

HOTCHKISS, COLORADO


Home > North America > United States > Colorado
Elevation: 6011 feet     Latitude: 38 51N     Longitude: 107 35W

WEATHER
 
SELECT A DAY
Number of Records: 63,181;   Date Range: 2/9/12 - 10/20/14
 
SHARE

PRINT THIS DATA

[ ← Previous Day ]
WEATHER ALMANAC - FEBRUARY 1, 2013
[ Next Day → ]
[ °C ]   °F
Weather ElementAverageHighLow
Temperature34.3 °F47.5 °F (3:15 pm)24.8 °F (3:55 am)
Dewpoint25.2 °F30.7 °F (4:15 pm)20.3 °F (11:15 am)
Humidity71.3 %91 % (3:55 am)42 % (12:55 pm)
Barometer30.29 in30.38 in (10:35 pm)30.23 in (2:15 pm)
Wind Speed3.4 mph12.7 mph (4:35 pm)
Weather ElementAverage
Visibility10 mi
Wind DirectionE (84.9 °)

Weather ElementTotal
Precipitation---
Heating Degree Days28.9 (Base 65)
Averaged from 69 records on February 1, 2013
WEATHER CONDITIONS BREAKOUT
WIND DIRECTION BREAKOUT
WEATHER BY HOUR - FEBRUARY 1, 2013
[ °C ]   °F
Local TimeTemperatureDewpointHumidityBarometerVisibilityWind DirectionWind SpeedGust SpeedPrecipitationEventsConditions
12:35 AM32.9 °F23.2 °F67 %30.30 in10.0 miCalmClear
12:55 AM31.8 °F23.0 °F70 %30.29 in10.0 miCalmClear
1:15 AM30.0 °F23.2 °F76 %30.29 in10.0 miCalmScattered Clouds
1:35 AM28.8 °F22.8 °F78 %30.29 in10.0 miSSW (210°)3.5 mphScattered Clouds
1:55 AM27.9 °F22.8 °F81 %30.30 in10.0 miCalmClear
2:15 AM27.9 °F23.0 °F82 %30.29 in10.0 miNNW (330°)3.5 mphClear
2:35 AM28.4 °F23.5 °F82 %30.29 in10.0 miNNW (340°)3.5 mphClear
2:55 AM27.5 °F22.8 °F83 %30.29 in10.0 miNorth (350°)4.6 mphClear
3:15 AM28.0 °F23.0 °F81 %30.28 in10.0 miNNE (30°)4.6 mphClear
3:35 AM27.5 °F22.6 °F82 %30.28 in10.0 miSouth (180°)3.5 mphClear
3:55 AM24.8 °F22.5 °F91 %30.28 in10.0 miCalmClear
4:15 AM25.3 °F23.2 °F91 %30.28 in10.0 miNorth (360°)3.5 mphClear
4:35 AM26.1 °F23.2 °F89 %30.28 in10.0 miNNE (20°)5.8 mphClear
4:55 AM26.8 °F23.0 °F86 %30.28 in10.0 miNNE (20°)6.9 mphClear
5:15 AM27.0 °F23.0 °F85 %30.28 in10.0 miNNE (20°)6.9 mphClear
5:35 AM27.5 °F22.8 °F83 %30.28 in10.0 miNNE (20°)5.8 mphScattered Clouds
6:15 AM26.1 °F21.9 °F84 %30.28 in10.0 miENE (60°)3.5 mphClear
6:35 AM25.9 °F21.6 °F84 %30.28 in10.0 miCalmClear
6:55 AM25.2 °F22.1 °F88 %30.28 in10.0 miCalmScattered Clouds
7:15 AM25.3 °F22.6 °F89 %30.29 in10.0 miCalmOvercast
7:35 AM25.3 °F22.8 °F90 %30.30 in10.0 miCalmOvercast
7:55 AM26.4 °F23.0 °F87 %30.30 in10.0 miCalmScattered Clouds
8:15 AM27.3 °F23.2 °F84 %30.31 in10.0 miCalmClear
8:35 AM29.1 °F23.7 °F80 %30.31 in10.0 miCalmClear
8:55 AM30.6 °F23.9 °F76 %30.31 in10.0 miCalmClear
9:15 AM31.6 °F24.1 °F74 %30.31 in10.0 miCalmClear
9:35 AM32.5 °F24.3 °F72 %30.31 in10.0 miCalmClear
9:55 AM34.7 °F24.6 °F67 %30.31 in10.0 miCalmClear
10:15 AM35.4 °F24.1 °F63 %30.31 in10.0 miCalmClear
10:35 AM37.2 °F25.5 °F63 %30.31 in10.0 miCalmClear
10:55 AM37.9 °F24.4 °F58 %30.31 in10.0 miCalmClear
11:15 AM38.8 °F20.3 °F47 %30.30 in10.0 miCalmClear
11:35 AM39.6 °F23.9 °F54 %30.30 in10.0 miCalmClear
11:55 AM40.5 °F24.6 °F53 %30.30 in10.0 miCalmClear
12:15 PM41.7 °F24.6 °F51 %30.28 in10.0 miCalmClear
12:35 PM42.8 °F24.3 °F48 %30.27 in10.0 miCalmClear
12:55 PM43.7 °F22.1 °F42 %30.26 in10.0 miCalmClear
1:15 PM44.6 °F24.8 °F46 %30.25 in10.0 miCalmClear
1:35 PM45.0 °F24.8 °F45 %30.24 in10.0 miCalmClear
1:55 PM45.5 °F24.1 °F43 %30.24 in10.0 miCalmClear
2:15 PM46.0 °F24.4 °F43 %30.23 in10.0 miCalmClear
2:35 PM46.4 °F24.6 °F42 %30.23 in10.0 miWNW (290°)3.5 mphClear
2:55 PM47.1 °F25.5 °F43 %30.23 in10.0 miWest (260°)5.8 mphClear
3:15 PM47.5 °F26.2 °F44 %30.24 in10.0 miSSW (210°)6.9 mphClear
3:35 PM46.6 °F30.2 °F53 %30.24 in10.0 miWSW (240°)9.2 mphClear
3:55 PM45.7 °F30.2 °F55 %30.24 in10.0 miWest (260°)5.8 mphClear
4:15 PM45.3 °F30.7 °F57 %30.24 in10.0 miWSW (250°)11.5 mphClear
4:35 PM44.6 °F30.2 °F57 %30.25 in10.0 miSW (230°)12.7 mphClear
4:55 PM43.7 °F30.6 °F60 %30.24 in10.0 miSW (220°)10.4 mphClear
5:15 PM41.9 °F30.2 °F63 %30.25 in10.0 miSW (220°)6.9 mphClear
5:35 PM39.9 °F29.3 °F66 %30.25 in10.0 miSW (230°)10.4 mphClear
5:55 PM38.1 °F28.9 °F70 %30.26 in10.0 miSW (230°)5.8 mphClear
6:15 PM36.5 °F28.2 °F72 %30.27 in10.0 miSW (230°)9.2 mphClear
6:55 PM34.9 °F28.2 °F77 %30.30 in10.0 miNNE (30°)4.6 mphClear
7:15 PM34.0 °F28.9 °F82 %30.30 in10.0 miNorth (360°)3.5 mphClear
7:35 PM33.4 °F28.4 °F82 %30.31 in10.0 miNNE (30°)5.8 mphClear
7:55 PM33.3 °F28.2 °F82 %30.32 in10.0 miNNE (30°)5.8 mphClear
8:15 PM32.9 °F28.0 °F82 %30.32 in10.0 miNNE (30°)5.8 mphClear
8:35 PM32.5 °F27.5 °F82 %30.34 in10.0 miNE (40°)5.8 mphClear
8:55 PM32.2 °F27.5 °F83 %30.34 in10.0 miNNE (30°)3.5 mphClear
9:15 PM32.9 °F27.7 °F81 %30.35 in10.0 miNE (40°)5.8 mphClear
9:35 PM32.0 °F27.3 °F83 %30.36 in10.0 miNE (40°)5.8 mphClear
9:55 PM31.3 °F26.8 °F83 %30.36 in10.0 miNNE (20°)3.5 mphClear
10:15 PM31.1 °F26.6 °F83 %30.37 in10.0 miNE (40°)5.8 mphClear
10:35 PM31.3 °F26.8 °F83 %30.38 in10.0 miEast (90°)3.5 mphClear
10:55 PM31.5 °F27.1 °F84 %30.38 in10.0 miNE (40°)6.9 mphClear
11:15 PM32.0 °F26.4 °F80 %30.38 in10.0 miNE (50°)6.9 mphClear
11:35 PM32.0 °F25.5 °F77 %30.38 in10.0 miNE (50°)6.9 mphClear
11:55 PM31.5 °F25.7 °F79 %30.38 in10.0 miSE (130°)3.5 mphClear
Hourly data recorded from KAJZ, located miles away from Hotchkiss, Colorado







STORIES FROM OUR PARTNERS